When you browse on this site, cookies collect data to enhance your experience and personalize the content and advertising you see.
Visit our Privacy Policy to learn more. By continuing to use the site, you agree to this use of cookies and data.
  • In Latvia
  • List of Countries
  • For 7 days
  • Water Temperature
  • Weather Map
  • Weather Widgets
  • user-avatar
    Login

    Hourly Weather Sydney

    Today, 30 May, Saturday

    Time Temperature Precipitation Wind Pressure Humidity
    00:00 +14°C° 0 mm 1 mps 769 mmHg 88%
    01:00 +14°C° 0 mm 1 mps 769 mmHg 88%
    02:00 +14°C° 0 mm 1 mps 769 mmHg 88%
    03:00 +14°C° 0 mm 1 mps 769 mmHg 88%
    04:00 +14°C° 0 mm 2 mps 770 mmHg 88%
    05:00 +13°C° 0 mm 2 mps 770 mmHg 89%
    06:00 +13°C° 0 mm 1 mps 770 mmHg 89%
    07:00 +13°C° 0 mm 1 mps 770 mmHg 90%
    08:00 +14°C° 0 mm 2 mps 770 mmHg 83%
    09:00 +16°C° 0 mm 2 mps 769 mmHg 75%
    10:00 +18°C° 0 mm 2 mps 769 mmHg 67%
    11:00 +19°C° 0 mm 2 mps 769 mmHg 61%
    12:00 +20°C° 0 mm 3 mps 768 mmHg 55%
    13:00 +21°C° 0 mm 3 mps 767 mmHg 49%
    14:00 +20°C° 0 mm 4 mps 767 mmHg 53%
    15:00 +20°C° 0 mm 4 mps 766 mmHg 58%
    16:00 +19°C° 0 mm 5 mps 766 mmHg 62%
    17:00 +17°C° 0 mm 5 mps 766 mmHg 68%
    18:00 +16°C° 0 mm 5 mps 766 mmHg 74%
    19:00 +15°C° 0 mm 5 mps 766 mmHg 81%
    20:00 +14°C° 0 mm 5 mps 766 mmHg 83%
    21:00 +14°C° 0 mm 5 mps 766 mmHg 86%
    22:00 +13°C° 0 mm 5 mps 766 mmHg 88%
    23:00 +13°C° 0 mm 4 mps 766 mmHg 89%

    Tomorrow, 31 May, Sunday

    Time Temperature Precipitation Wind Pressure Humidity
    00:00 +13°C° 0 mm 4 mps 765 mmHg 90%
    01:00 +12°C° 0 mm 4 mps 765 mmHg 92%
    02:00 +12°C° 0 mm 4 mps 765 mmHg 91%
    03:00 +12°C° 0 mm 3 mps 764 mmHg 90%
    04:00 +12°C° 0 mm 2 mps 764 mmHg 90%
    05:00 +11°C° 0 mm 3 mps 764 mmHg 88%
    06:00 +11°C° 0 mm 3 mps 764 mmHg 85%
    07:00 +11°C° 0 mm 3 mps 764 mmHg 83%
    08:00 +13°C° 0 mm 3 mps 764 mmHg 75%
    09:00 +16°C° 0 mm 3 mps 764 mmHg 68%
    10:00 +17°C° 0 mm 3 mps 764 mmHg 61%
    11:00 +19°C° 0 mm 3 mps 763 mmHg 56%
    12:00 +20°C° 0 mm 4 mps 762 mmHg 51%
    13:00 +21°C° 0 mm 4 mps 762 mmHg 45%
    14:00 +21°C° 0 mm 4 mps 761 mmHg 47%
    15:00 +21°C° 0 mm 4 mps 761 mmHg 48%
    16:00 +21°C° 0 mm 4 mps 761 mmHg 49%
    17:00 +19°C° 0 mm 4 mps 761 mmHg 55%
    18:00 +18°C° 0 mm 4 mps 761 mmHg 60%
    19:00 +15°C° 0 mm 4 mps 761 mmHg 66%
    20:00 +15°C° 0 mm 4 mps 761 mmHg 68%
    21:00 +14°C° 0 mm 4 mps 761 mmHg 71%
    22:00 +14°C° 0 mm 4 mps 761 mmHg 74%
    23:00 +14°C° 0 mm 4 mps 760 mmHg 74%

    Day after tomorrow, 1 June, Monday

    Time Temperature Precipitation Wind Pressure Humidity
    00:00 +13°C° 0 mm 4 mps 759 mmHg 75%
    01:00 +13°C° 0 mm 4 mps 759 mmHg 75%
    02:00 +13°C° 0 mm 4 mps 758 mmHg 75%
    03:00 +13°C° 0 mm 5 mps 758 mmHg 74%
    04:00 +13°C° 0 mm 5 mps 757 mmHg 73%
    05:00 +13°C° 0 mm 6 mps 757 mmHg 71%
    06:00 +14°C° 0 mm 6 mps 757 mmHg 69%
    07:00 +14°C° 0 mm 7 mps 757 mmHg 67%
    08:00 +15°C° 0 mm 7 mps 757 mmHg 60%
    09:00 +17°C° 0 mm 7 mps 756 mmHg 53%
    10:00 +18°C° 0 mm 7 mps 756 mmHg 47%
    11:00 +20°C° 0 mm 7 mps 756 mmHg 41%
    12:00 +21°C° 0 mm 7 mps 755 mmHg 34%
    13:00 +23°C° 0 mm 7 mps 754 mmHg 28%
    14:00 +21°C° 0 mm 7 mps 754 mmHg 34%
    15:00 +20°C° 0 mm 7 mps 755 mmHg 39%
    16:00 +17°C° 0 mm 8 mps 755 mmHg 44%
    17:00 +16°C° 0 mm 8 mps 755 mmHg 48%
    18:00 +14°C° 0 mm 7 mps 756 mmHg 53%
    19:00 +12°C° 0 mm 7 mps 757 mmHg 57%
    20:00 +11°C° 0 mm 7 mps 757 mmHg 58%
    21:00 +10°C° 0 mm 7 mps 758 mmHg 60%
    22:00 +10°C° 0 mm 6 mps 758 mmHg 62%
    23:00 +9°C° 0 mm 7 mps 758 mmHg 61%

    2 June, Tuesday

    Time Temperature Precipitation Wind Pressure Humidity
    00:00 +9°C° 0 mm 7 mps 758 mmHg 60%
    01:00 +8°C° 0 mm 7 mps 759 mmHg 59%
    02:00 +8°C° 0 mm 7 mps 759 mmHg 59%
    03:00 +8°C° 0 mm 6 mps 759 mmHg 60%
    04:00 +8°C° 0 mm 6 mps 759 mmHg 61%
    05:00 +8°C° 0 mm 6 mps 759 mmHg 61%
    06:00 +7°C° 0 mm 6 mps 760 mmHg 62%
    07:00 +7°C° 0 mm 6 mps 760 mmHg 62%
    08:00 +8°C° 0 mm 6 mps 761 mmHg 58%
    09:00 +10°C° 0 mm 6 mps 761 mmHg 53%
    10:00 +12°C° 0 mm 7 mps 761 mmHg 48%
    11:00 +14°C° 0 mm 7 mps 761 mmHg 46%
    12:00 +15°C° 0 mm 7 mps 761 mmHg 44%
    13:00 +16°C° 0 mm 8 mps 761 mmHg 42%
    14:00 +16°C° 0 mm 7 mps 761 mmHg 44%
    15:00 +16°C° 0 mm 7 mps 762 mmHg 46%
    16:00 +15°C° 0 mm 6 mps 762 mmHg 48%
    17:00 +14°C° 0 mm 6 mps 763 mmHg 52%
    18:00 +13°C° 0 mm 6 mps 763 mmHg 55%
    19:00 +11°C° 0 mm 6 mps 764 mmHg 58%
    20:00 +10°C° 0 mm 6 mps 765 mmHg 60%
    21:00 +10°C° 0 mm 6 mps 765 mmHg 61%
    22:00 +9°C° 0 mm 6 mps 765 mmHg 63%
    23:00 +9°C° 0 mm 6 mps 765 mmHg 64%

    3 June, Wednesday

    Time Temperature Precipitation Wind Pressure Humidity
    00:00 +8°C° 0 mm 6 mps 765 mmHg 65%
    01:00 +8°C° 0 mm 5 mps 765 mmHg 66%
    02:00 +8°C° 0 mm 5 mps 765 mmHg 68%
    03:00 +8°C° 0 mm 5 mps 765 mmHg 70%
    04:00 +8°C° 0 mm 5 mps 765 mmHg 71%
    05:00 +7°C° 0 mm 5 mps 766 mmHg 73%
    06:00 +7°C° 0 mm 4 mps 766 mmHg 75%
    07:00 +7°C° 0 mm 4 mps 767 mmHg 77%
    08:00 +10°C° 0 mm 4 mps 767 mmHg 69%
    09:00 +12°C° 0 mm 4 mps 767 mmHg 62%
    10:00 +14°C° 0 mm 3 mps 768 mmHg 55%
    11:00 +15°C° 0 mm 4 mps 768 mmHg 51%
    12:00 +17°C° 0 mm 4 mps 767 mmHg 48%
    13:00 +19°C° 0 mm 4 mps 767 mmHg 44%
    14:00 +18°C° 0 mm 4 mps 767 mmHg 48%
    15:00 +17°C° 0 mm 4 mps 767 mmHg 52%
    16:00 +16°C° 0 mm 5 mps 768 mmHg 56%
    17:00 +14°C° 0 mm 5 mps 768 mmHg 62%
    18:00 +13°C° 0 mm 5 mps 769 mmHg 67%
    19:00 +12°C° 0 mm 5 mps 770 mmHg 73%
    20:00 +12°C° 0 mm 5 mps 770 mmHg 75%
    21:00 +10°C° 0 mm 5 mps 771 mmHg 76%
    22:00 +10°C° 0 mm 5 mps 771 mmHg 78%
    23:00 +9°C° 0 mm 5 mps 771 mmHg 79%

    4 June, Thursday

    Time Temperature Precipitation Wind Pressure Humidity
    00:00 +9°C° 0 mm 5 mps 771 mmHg 80%
    01:00 +9°C° 0 mm 5 mps 771 mmHg 81%
    02:00 +8°C° 0 mm 5 mps 771 mmHg 82%
    03:00 +8°C° 0 mm 5 mps 771 mmHg 83%
    04:00 +8°C° 0 mm 5 mps 771 mmHg 84%
    05:00 +8°C° 0 mm 5 mps 772 mmHg 84%
    06:00 +8°C° 0 mm 5 mps 772 mmHg 85%
    07:00 +8°C° 0 mm 5 mps 773 mmHg 85%
    08:00 +9°C° 0 mm 5 mps 773 mmHg 76%
    09:00 +12°C° 0 mm 5 mps 773 mmHg 67%
    10:00 +14°C° 0 mm 5 mps 773 mmHg 59%
    11:00 +15°C° 0 mm 5 mps 772 mmHg 54%
    12:00 +17°C° 0 mm 4 mps 772 mmHg 49%
    13:00 +18°C° 0 mm 4 mps 771 mmHg 44%
    14:00 +18°C° 0 mm 4 mps 771 mmHg 50%
    15:00 +17°C° 0 mm 4 mps 771 mmHg 55%
    16:00 +15°C° 0 mm 4 mps 771 mmHg 60%
    17:00 +14°C° 0 mm 4 mps 772 mmHg 66%
    18:00 +13°C° 0 mm 3 mps 772 mmHg 72%
    19:00 +12°C° 0 mm 3 mps 773 mmHg 78%
    20:00 +11°C° 0 mm 3 mps 773 mmHg 79%
    21:00 +12°C° 0 mm 2 mps 773 mmHg 81%
    22:00 +10°C° 0 mm 2 mps 773 mmHg 82%
    23:00 +10°C° 0 mm 2 mps 773 mmHg 82%
    Show more